TimeCST,TemperatureF,Dew PointF,Humidity,Sea Level PressureIn,VisibilityMPH,Wind Direction,Wind SpeedMPH,Gust SpeedMPH,PrecipitationIn,Events,Conditions,WindDirDegrees,DateUTC
12:55 AM,45.0,37.9,76,29.78,10.0,Calm,Calm,-,N/A,,Clear,0,2012-11-09 06:55:00
1:55 AM,44.1,37.9,79,29.77,10.0,Calm,Calm,-,N/A,,Clear,0,2012-11-09 07:55:00
2:55 AM,42.1,37.0,82,29.77,10.0,Calm,Calm,-,N/A,,Clear,0,2012-11-09 08:55:00
3:55 AM,42.1,37.0,82,29.76,10.0,Calm,Calm,-,N/A,,Clear,0,2012-11-09 09:55:00
4:55 AM,42.1,37.9,85,29.77,10.0,Calm,Calm,-,N/A,,Clear,0,2012-11-09 10:55:00
5:55 AM,42.1,37.9,85,29.78,10.0,Calm,Calm,-,N/A,,Clear,0,2012-11-09 11:55:00
6:55 AM,37.9,36.0,93,29.79,10.0,WNW,4.6,-,N/A,,Clear,300,2012-11-09 12:55:00
7:55 AM,39.0,36.0,89,29.79,10.0,Calm,Calm,-,N/A,,Clear,0,2012-11-09 13:55:00
8:55 AM,45.0,39.9,82,29.79,10.0,Calm,Calm,-,N/A,,Clear,0,2012-11-09 14:55:00
9:55 AM,50.0,44.1,80,29.77,10.0,East,4.6,-,N/A,,Clear,90,2012-11-09 15:55:00
10:55 AM,57.9,48.0,70,29.76,10.0,Calm,Calm,-,N/A,,Clear,0,2012-11-09 16:55:00
11:55 AM,62.1,48.9,62,29.74,10.0,NNW,4.6,-,N/A,,Clear,330,2012-11-09 17:55:00
12:55 PM,64.9,46.9,52,29.70,10.0,SSW,9.2,-,N/A,,Clear,200,2012-11-09 18:55:00
1:55 PM,68.0,43.0,40,29.68,10.0,SSW,9.2,-,N/A,,Clear,200,2012-11-09 19:55:00
2:55 PM,70.0,45.0,41,29.66,10.0,South,4.6,-,N/A,,Clear,170,2012-11-09 20:55:00
3:55 PM,71.1,46.0,41,29.64,10.0,Calm,Calm,-,N/A,,Clear,0,2012-11-09 21:55:00
4:55 PM,69.1,46.0,44,29.62,10.0,Calm,Calm,-,N/A,,Clear,0,2012-11-09 22:55:00
5:55 PM,66.9,52.0,59,29.63,10.0,South,9.2,-,N/A,,Clear,170,2012-11-09 23:55:00
6:55 PM,68.0,54.0,61,29.63,10.0,SSE,13.8,-,N/A,,Clear,150,2012-11-10 00:55:00
7:55 PM,69.1,55.0,61,29.62,10.0,South,19.6,25.3,N/A,,Clear,170,2012-11-10 01:55:00
8:55 PM,70.0,55.0,59,29.61,10.0,South,21.9,31.1,N/A,,Clear,180,2012-11-10 02:55:00
9:55 PM,69.1,55.0,61,29.61,10.0,South,21.9,31.1,N/A,,Clear,180,2012-11-10 03:55:00
10:55 PM,68.0,55.0,63,29.60,10.0,South,19.6,31.1,N/A,,Clear,180,2012-11-10 04:55:00
11:55 PM,66.9,55.0,66,29.59,10.0,South,23.0,31.1,N/A,,Clear,180,2012-11-10 05:55:00